Regional Weather Roundup
Issued by NWS

Home | Current Version | Previous Version | Graphics & Text | Print | Product List | Glossary On
Versions: 1 2 3 4 5 6 7 8 9 10 11 12 13 14 15 16 17 18 19 20 21 22 23 24 25 26 27 28
000
ASUS45 KTFX 051010
RWRMT
MONTANA REGIONAL WEATHER ROUNDUP
NATIONAL WEATHER SERVICE GREAT FALLS MT
300 AM MST MON DEC 05 2016

NOTE: "FAIR" INDICATES FEW OR NO CLOUDS BELOW 12000 FEET WITH NO
SIGNIFICANT WEATHER AND/OR OBSTRUCTIONS TO VISIBILITY.

MTZ001>007-043-051100-
WEST OF THE DIVIDE

CITY           SKY/WX    TMP DP  RH WIND       PRES   REMARKS
KALISPELL      CLOUDY    24  18  77 N7        29.82R WCI  16
MISSOULA       CLOUDY    24  13  62 W9        29.89R WCI  14
BUTTE          CLOUDY    18   3  52 NW7       29.72R WCI   9
MULLAN PASS    CLOUDY    10   7  87 NW8       29.74R WCI  -2
ANACONDA         N/A     19   1  45 W25G32    29.71S WCI   2
DEER LODGE       N/A     23   1  39 W16G28    29.76R WCI  10
EUREKA           N/A     25  23  93 W5        29.86R VSB 3/4
HAMILTON         N/A     25   3  39 E6        29.89R WCI  18
LIBBY            N/A     27  21  80 CALM      29.86R
PLAINS           N/A     27  12  53 W3        29.92R
RONAN            N/A     27  15  60 CALM      29.89R
THOMPSON FALLS   N/A     23  20  89 CALM      29.97R
$$

MTZ008-052>055-051100-
SOUTHWEST MONTANA

CITY           SKY/WX    TMP DP  RH WIND       PRES   REMARKS
BOZEMAN        CLOUDY    25   8  48 W12       29.74R WCI  14
DILLON         CLEAR     14   1  56 SW7       29.76R WCI   4
W YELLOWSTONE  LGT SNOW  16  12  86 N5        29.64R
ENNIS          CLOUDY    21   3  45 W18       29.78R WCI   6
THREE FORKS      N/A     26  26 100 NW7       29.77R WCI  18
TWIN BRIDGES     N/A     20   0  41 SE6       29.78R WCI  12
$$

MTZ009-010-012-014-046-048-049-054-051100-
EAST SLOPES AND CENTRAL MONTANA

CITY           SKY/WX    TMP DP  RH WIND       PRES   REMARKS
CUT BANK       CLOUDY    15  12  88 N12       29.82R WCI   2
GREAT FALLS    CLOUDY    19  16  88 NW10      29.81R WCI   7
MALMSTROM AFB  FLURRIES  20  17  89 NW10      29.83R WCI   8
HELENA         LGT SNOW  21  17  84 W9        29.79R VSB 3/4 WCI  11
AUGUSTA        LGT SNOW  16  13  87 N14       29.78R WCI   2
BOWMANS CRNR   LGT SNOW  16  14  95 NE6       29.77R WCI   7
CHOTEAU          N/A     18  14  86 NW9       29.83R WCI   6
CONRAD           N/A     19  17  92 W12       29.86R WCI   7
FAIRFIELD      LGT SNOW  18  15  88 NW6       29.81R WCI   9
POWER          FLURRIES  18  14  87 NW12      29.80R WCI   5
RAYNESFORD     LGT SNOW  17  15  91 W10       29.79R WCI   5
ULM            LGT SNOW  19  18  94 N15       29.82R WCI   5
$$

MTZ011-013-016-021-045-047-050-051-051100-
NORTH CENTRAL MONTANA

CITY           SKY/WX    TMP DP  RH WIND       PRES   REMARKS
HAVRE          CLOUDY    21  14  74 NW17      29.79R WCI   7
LEWISTOWN      LGT SNOW  18  14  84 NW15G26   29.71R FOG     WCI   4
N BAR RANCH    FLURRIES  18  12  79 NW24G33   29.66R WCI   0
CHINOOK          N/A     21  18  86 W12       29.78R WCI   9
DENTON         LGT SNOW  19  16  88 NW13G38   29.72R WCI   6
GEYSER           N/A     17  12  82 W9        29.74R WCI   6
GRASS RANGE    FLURRIES  19  15  84 W5        29.66R
JUDITH GAP     FLURRIES  15  13  90 N18       29.68R WCI  -2
ROY            MOCLDY    19  17  91 MISG      29.67R
STANFORD       LGT SNOW  15  13  92 NW24G30   29.71R WCI  -3
WINIFRED       FLURRIES  19  17  93 MISG      29.73R
$$

MTZ017>020-022>027-061-062-051100-
NORTHEAST MONTANA

CITY           SKY/WX    TMP DP  RH WIND       PRES   REMARKS
GLASGOW        CLOUDY    24  19  81 NW29G38   29.60R WCI   7
JORDAN           N/A     26  20  77 NW22G31   29.65R WCI  12
SIDNEY         PTCLDY    32  30  92 W16G23    29.50F WCI  21
WOLF POINT     CLOUDY    32  30  92 SW17      29.54R WCI  21
PLENTYWOOD       N/A     25  25 100 NW5       29.49S
POPLAR           N/A     34  30  86 W10       29.53R WCI  26
SCOBEY           N/A     26  16  66 NW18      29.55R VSB 0   WCI  13
$$

MTZ028>42-056>058-051100-
SOUTHCENTRAL AND SOUTHEAST MONTANA

CITY           SKY/WX    TMP DP  RH WIND       PRES   REMARKS
BAKER          CLOUDY    31  28  89 W12       29.57R WCI  22
BILLINGS       CLOUDY    28  15  58 NW22      29.65R WCI  14
LIVINGSTON     FLURRIES  22  17  81 NW10      29.69R WCI  11
MILES CITY     CLOUDY    32  26  78 NW24G30   29.61R WCI  19
BIG TIMBER     MOCLDY    27  14  59 W21G29    29.68R WCI  13
EKALAKA          N/A     30  26  85 W12       29.57R WCI  20
FORSYTH          N/A     28  23  80 W15       29.66R WCI  17
HARLOWTON      FLURRIES  18  13  79 N24G33    29.68R WCI   0
LAUREL           N/A     27   8  44 W13       29.68R WCI  16
ROUNDUP          N/A     25  11  55 NW20      29.63R WCI  11
$$

REGIONAL REPORTS...DAKOTAS

CITY           SKY/WX    TMP DP  RH WIND       PRES   REMARKS
WILLISTON      MOCLDY    25  23  92 SW5       29.48S
MINOT          CLOUDY    19  16  88 E7        29.53F WCI  10
DICKINSON      CLOUDY    29  24  82 SW7       29.49R WCI  22
BEACH          CLOUDY    32  30  93 W14       29.56R WCI  22
CROSBY         LGT SNOW  23  23 100 E7        29.51F WCI  15
TIOGA          CLOUDY    28  28 100 E7        29.47F WCI  21
WATFORD CITY     N/A     28  25  86 SW10      29.49R WCI  19
BISMARCK       CLOUDY    19  16  88 N6        29.58S WCI  11
GRAND FORKS    CLOUDY    26  23  88 CALM      29.70F
FARGO          PTCLDY    21  18  88 CALM      29.70F
BUFFALO SD       N/A     34  27  75 NW23      29.45R WCI  22
RAPID CITY     CLOUDY    33  21  61 NE3       29.48F
$$

REGIONAL REPORTS...WYOMING/IDAHO/WASHINGTON

CITY           SKY/WX    TMP DP  RH WIND       PRES   REMARKS
GILLETTE       LGT SNOW  29  28  96 NW17      29.56F FOG     WCI  17
SHERIDAN       CLOUDY    29  25  85 NW14      29.61S WCI  18
BUFFALO WY     FLURRIES  28  22  78 N21G31    29.56S WCI  15
CODY           LGT SNOW  25  21  86 N7        29.59R FOG     WCI  17
YELLOWSTONE LA   N/A     14   8  77 W12G23    29.54R WCI   0
IDAHO FALLS    CLOUDY    26  13  57 W20G30    29.79R WCI  12
SALMON         MOCLDY    19  10  68 N7        29.89R WCI  10
BOISE          CLEAR     26  17  68 NW8       30.07R WCI  18
SPOKANE        CLEAR     24  13  62 SW10      30.00R WCI  14
$$

REGIONAL REPORTS...ALBERTA

CITY           SKY/WX    TMP DP  RH WIND       PRES   REMARKS
EDMONTON         N/A      3  -2  78 NW18      30.00R WCI -17
CALGARY        PTCLDY     7  -2  66 N15G22    29.87R WCI -11
LETHBRIDGE     PTCLDY    10   5  79 N10       29.91R WCI  -3
MEDICINE HAT   FLURRIES  16   9  73 NW24      29.86R WCI  -3
WATERTON GATE    N/A     14  12  92 NE7         N/A  WCI   4
CARDSTON         N/A     14  12  92 N6          N/A  WCI   5
MILK RIVER       N/A     12   9  85 N13         N/A  WCI  -3
$$

REGIONAL REPORTS...SASKATCHEWAN

CITY           SKY/WX    TMP DP  RH WIND       PRES   REMARKS
SWIFT CURRENT  FLURRIES  16  16 100 NW25      29.65R WCI  -3
REGINA         FLURRIES  16  14  93 N8        29.60R WCI   5
SASKATOON      CLOUDY    16  10  79 NW17G24   29.72R WCI   0
CYPRESS HILLS    N/A      9   3  78 NW16G32     N/A  WCI  -9
VAL MARIE        N/A     19  18  93 N20         N/A  WCI   4
ROCKGLEN         N/A     19  18  93 N21G31      N/A  WCI   3
ASSINIBOIA       N/A      5   0  78 NW23G31     N/A  WCI -17
$$




USA.gov is the U.S. government's official web portal to all federal, state and local government web resources and services.